Location: Wildlife_Club
(35.6000°N, 81.4330°W)
Time: 00:15:52
(UTC-04:00)

Vanguard 2 Rocket - Pass Details

Date: 24 June 2019
Orbit: 554 x 3326 km, 32.9° (Epoch: 12 October)

Event Time Altitude Azimuth Distance (km) Brightness Sun altitude
Rises 02:13:35 0° 277° (W) 4,858 10.6 -30.0°
Reaches altitude 10° 02:16:15 10° 275° (W) 4,167 10.2 -29.9°
Maximum altitude 02:28:24 70° 195° (SSW) 2,728 8.9 -29.3°
Drops below altitude 10° 02:47:37 10° 117° (ESE) 6,240 11.1 -28.1°
Sets 02:52:42 0° 116° (ESE) 7,310 11.5 -27.7°
